Wetbulb
51.79 51.71 51.95 52.21 52.40 52.50 52.28 52.23 52.49 53.35 53.53 54.35 54.99 55.03 55.04 55.17 55.36 53.37 48.52 53.62 56.57 60.71 59.79 55.43 53.64 52.67 55.48 53.78 50.70 50.89 44.37 45.65 49.15 50.43 52.26 55.22 54.61 57.05 59.91 58.57 59.03 60.39 59.74 63.38 65.65
52.28 52.24 52.35 52.47 52.59 52.65 52.81 52.94 52.70 52.04 52.76 54.22 54.51 54.80 54.97 54.61 51.54 48.80 54.77 57.14 58.56 59.97 54.84 50.84 49.53 50.17 52.79 53.67 50.41 49.47 42.89 46.17 53.02 53.89 53.08 53.93 54.70 56.27 56.06 56.79 57.06 58.61 61.79 65.21 63.54
52.26 52.42 52.51 52.64 52.75 53.03 52.93 52.96 53.05 52.93 52.58 52.06 53.86 54.48 54.57 53.97 45.86 46.42 57.04 58.99 59.18 59.44 56.47 54.14 50.73 49.93 50.46 52.40 49.93 47.57 44.15 49.06 51.76 51.86 51.46 51.22 52.66 56.14 55.55 54.96 57.47 57.19 60.43 62.14 60.63
52.26 52.36 52.53 52.85 52.94 52.95 53.13 53.12 53.16 53.04 53.03 52.89 51.97 53.56 53.82 50.66 34.36 50.82 55.63 56.31 56.34 58.58 55.67 52.02 47.78 45.26 46.99 48.49 51.69 46.52 49.47 49.93 52.04 53.89 52.62 49.91 53.02 53.17 55.22 57.08 59.31 59.79 62.33 61.09 60.28
51.91 51.96 52.26 52.52 52.65 52.89 53.06 53.23 53.28 53.12 53.09 53.12 52.83 51.86 50.72 43.29 43.39 52.96 55.52 55.28 54.99 55.28 52.73 49.73 44.72 44.96 44.57 49.14 50.66 48.57 49.77 50.69 51.48 52.97 53.34 52.98 50.40 51.53 53.33 57.71 59.65 60.54 61.64 61.00 61.61
51.97 52.20 52.22 52.28 52.47 52.53 52.76 53.04 53.17 53.11 53.00 52.85 52.61 51.73 46.74 37.97 50.71 53.49 53.10 52.73 52.48 53.33 52.46 50.82 45.34 47.42 46.87 47.17 48.74 51.14 50.42 49.33 49.68 50.26 52.47 50.02 50.12 50.05 51.53 55.01 58.15 60.08 60.84 61.53 61.82
51.74 51.97 51.87 51.93 52.07 52.24 52.35 52.65 52.90 52.18 51.55 52.26 52.94 50.31 44.52 42.21 51.48 52.91 52.03 51.69 53.73 53.49 51.06 51.92 48.52 46.95 48.64 46.35 49.31 50.13 46.95 48.51 47.81 48.36 47.82 50.20 46.76 48.04 51.71 55.94 56.11 58.56 60.43 61.50 62.32
51.70 51.69 51.79 51.90 51.94 51.96 52.23 52.44 51.54 51.43 52.33 53.23 52.97 49.31 40.59 50.76 52.92 50.81 51.24 51.03 53.03 54.29 53.33 52.59 49.12 47.05 48.15 49.98 47.24 45.05 45.45 42.35 47.12 47.23 47.18 46.70 42.86 50.23 52.58 51.70 52.20 56.87 59.51 60.71 61.95
51.30 51.46 51.75 51.83 51.75 51.81 52.01 50.52 51.29 50.97 51.83 52.09 48.85 46.14 39.27 51.41 47.45 50.31 49.41 47.90 50.50 52.33 52.69 49.71 48.33 45.75 46.92 43.47 41.42 42.86 38.56 40.44 43.52 47.95 47.02 45.20 42.66 51.12 51.55 50.92 50.44 52.40 57.01 59.89 61.19
50.98 51.19 51.69 51.58 51.51 51.67 49.71 50.31 50.32 50.30 49.14 51.30 49.51 41.31 44.13 38.68 45.80 49.03 51.07 50.27 48.74 48.64 46.53 44.82 43.32 40.80 42.19 41.23 35.12 38.12 38.89 41.39 40.20 44.98 46.17 45.36 44.16 49.01 49.30 48.57 49.62 51.73 53.58 57.82 60.12
51.22 51.35 51.33 51.29 51.26 51.15 48.20 45.91 41.16 40.69 42.72 38.74 38.63 39.00 41.43 45.25 47.87 46.59 49.79 49.07 48.59 45.43 38.61 41.62 36.27 34.63 38.95 42.04 43.63 42.95 41.26 39.80 43.24 44.70 43.09 43.29 44.22 46.37 48.44 48.14 48.50 50.33 50.83 54.70 58.62
50.20 50.39 50.32 50.69 50.92 48.34 47.50 40.22 40.77 42.02 35.55 42.68 42.82 43.26 45.75 45.73 39.70 41.78 48.62 43.36 43.68 38.12 41.72 38.49 33.57 39.07 41.23 41.96 42.02 41.80 39.75 39.97 39.96 42.27 42.32 42.59 41.87 45.71 47.37 48.13 49.31 49.45 49.81 50.81 54.16
50.52 50.32 50.09 50.50 49.72 47.22 43.82 42.35 47.33 46.99 35.77 38.98 42.44 41.85 42.07 45.50 39.79 39.41 43.81 43.00 40.90 38.08 39.23 36.85 38.10 41.61 39.49 39.11 38.73 39.90 38.92 39.22 40.08 39.82 42.28 41.07 39.89 42.22 46.33 48.04 49.14 50.25 51.05 51.44 50.80
50.39 50.12 50.02 50.26 46.14 46.04 41.87 46.34 47.84 47.57 30.66 31.31 37.56 40.97 42.24 43.11 39.15 44.51 45.47 41.71 39.77 36.96 38.71 38.38 40.83 38.89 37.54 37.09 39.82 35.59 41.77 40.70 40.37 37.58 33.55 40.43 32.96 41.70 43.95 45.10 46.52 48.15 49.19 50.65 51.51
50.15 49.94 50.05 48.53 46.14 43.01 44.25 47.63 47.85 44.78 19.75 32.70 36.11 45.42 43.29 39.07 40.37 40.41 45.04 40.26 35.83 37.10 38.87 35.05 36.93 36.21 35.64 37.77 40.72 37.12 41.41 39.92 39.28 37.63 36.83 35.97 34.07 39.16 42.64 41.86 45.03 46.36 48.29 49.06 51.06
50.62 50.07 49.86 47.74 48.19 46.42 48.19 47.70 44.61 30.13 17.61 27.76 35.57 35.11 36.59 38.24 39.32 41.17 40.29 41.95 39.55 37.20 38.85 37.53 41.20 40.09 38.08 39.68 41.61 41.96 39.32 38.17 37.78 35.48 29.12 35.51 35.25 36.51 39.99 41.59 44.13 44.30 45.24 46.59 47.57
50.33 48.58 47.76 47.94 42.46 47.57 48.09 41.55 30.51 20.38 30.68 26.37 28.60 33.80 34.84 34.20 34.60 38.03 36.06 34.59 32.75 30.02 31.49 35.52 36.40 39.12 40.46 36.56 39.58 39.08 34.97 27.18 25.53 25.05 25.94 35.75 34.94 36.94 42.10 42.89 43.04 43.05 43.55 43.79 45.81
47.60 47.27 46.06 46.90 48.01 47.29 44.52 35.48 20.58 20.63 24.63 31.60 31.59 33.11 30.78 33.89 34.62 34.34 36.08 32.85 34.47 34.73 31.59 30.54 28.55 35.92 39.83 37.57 35.12 35.56 33.83 28.62 19.90 22.48 27.51 34.82 28.69 35.73 42.94 43.94 44.58 44.63 43.87 44.27 44.38
46.49 47.64 46.38 46.72 47.19 45.39 37.81 26.88 23.59 24.83 28.92 27.96 30.86 27.93 28.89 32.65 33.22 34.36 34.43 33.19 35.77 36.09 30.27 30.33 30.92 39.13 38.92 40.07 39.37 35.15 31.26 36.34 28.83 25.48 27.66 31.74 35.03 39.56 41.85 41.63 42.27 42.45 42.66 42.69 43.37
44.89 43.14 43.27 46.98 45.83 42.62 33.30 25.83 26.56 28.17 30.10 31.21 24.64 27.93 25.21 28.88 29.80 31.72 31.01 32.82 32.92 36.26 39.28 34.62 29.68 34.68 36.92 39.92 40.50 37.40 38.69 28.86 30.40 22.29 20.97 29.29 31.43 33.10 37.35 39.65 39.75 39.79 41.04 42.71 43.63
43.93 37.29 43.42 47.01 44.60 37.81 29.04 26.53 25.55 30.99 31.67 28.11 26.31 25.95 27.95 27.37 30.09 30.01 30.13 33.88 34.62 34.55 37.30 36.78 33.81 30.87 35.01 33.75 33.24 33.98 32.92 33.48 33.48 30.88 24.39 23.72 29.80 38.24 38.69 39.13 38.72 39.99 40.20 40.48 42.39
41.89 31.29 43.61 45.90 33.01 31.64 29.75 26.55 28.88 29.54 33.20 30.29 30.89 29.11 28.49 29.29 28.47 30.27 30.11 32.40 36.75 35.76 32.56 37.54 34.60 30.60 31.05 35.71 37.44 36.94 33.97 33.88 27.03 26.24 30.02 28.69 29.20 37.60 38.70 38.96 39.01 40.05 39.62 40.29 41.79
32.14 34.43 43.50 43.02 31.07 29.99 25.69 26.03 27.64 28.37 29.94 29.45 28.44 30.50 31.83 28.61 26.86 30.06 31.46 36.74 36.84 35.23 33.19 34.26 32.46 27.98 29.08 33.03 35.82 34.02 35.78 35.24 34.57 33.31 28.49 25.12 29.37 36.95 37.29 38.47 39.39 39.32 41.13 41.68 43.00
33.73 31.31 35.37 37.13 34.51 31.36 27.33 24.81 25.87 30.67 29.99 31.60 29.54 31.00 29.49 26.62 31.17 26.59 29.66 33.76 36.36 36.50 36.56 36.40 32.82 29.95 26.06 28.85 33.05 31.10 33.95 36.03 33.95 30.39 30.28 31.03 33.30 36.24 36.42 36.93 38.89 39.75 40.68 41.80 43.65
32.25 31.31 29.71 29.55 29.30 29.76 28.82 25.55 24.13 25.61 30.18 31.89 28.64 28.45 27.36 23.73 25.62 26.55 29.55 30.95 34.84 36.50 35.84 34.34 28.91 29.82 30.22 33.11 33.08 32.33 32.83 34.44 32.91 34.24 29.98 33.06 33.92 37.87 40.41 38.59 40.33 40.23 40.14 40.78 42.60
31.94 31.15 30.84 28.66 28.52 27.95 27.48 26.08 25.03 26.87 28.22 26.60 27.21 29.29 29.36 25.42 26.52 24.03 28.21 29.16 29.12 33.55 32.04 34.41 28.03 29.89 27.06 30.85 31.37 30.18 32.72 34.01 34.34 34.77 34.33 35.15 34.46 41.49 42.35 42.08 40.92 41.19 41.35 40.37 42.27
39.33 39.10 36.53 29.72 28.02 26.32 27.87 28.00 25.94 29.37 31.02 31.76 30.67 29.36 27.88 29.67 32.85 33.83 34.53 33.26 32.11 29.55 28.43 30.02 28.38 27.16 23.57 28.27 27.71 24.99 29.72 32.51 34.27 36.27 35.66 31.30 36.66 40.91 40.32 40.49 41.29 41.74 40.55 41.76 41.88
MSLP
1021.43 1021.10 1020.76 1020.40 1020.15 1019.90 1019.62 1019.24 1018.80 1018.37 1017.83 1017.46 1017.06 1016.75 1016.56 1016.32 1015.87 1015.16 1013.87 1014.01 1014.37 1013.83 1014.19 1013.75 1013.19 1012.90 1013.41 1013.71 1013.79 1014.16 1011.98 1008.69 1006.87 1005.91 1005.25 1005.47 1005.58 1005.90 1005.66 1005.65 1006.62 1007.31 1007.62 1008.36 1010.49
1021.49 1021.07 1020.73 1020.32 1019.97 1019.76 1019.50 1019.12 1018.75 1018.37 1017.88 1017.28 1016.90 1016.47 1016.18 1016.05 1015.34 1013.81 1013.51 1013.60 1013.95 1013.90 1013.99 1013.35 1012.78 1012.94 1013.12 1013.47 1014.03 1014.55 1012.71 1009.83 1007.38 1006.42 1005.97 1005.83 1006.00 1005.81 1006.28 1006.11 1006.78 1007.84 1009.02 1009.68 1011.40
1021.42 1021.02 1020.60 1020.29 1019.87 1019.47 1019.10 1018.82 1018.46 1018.04 1017.59 1017.21 1016.74 1016.18 1015.95 1015.85 1014.55 1012.08 1011.82 1012.12 1012.51 1013.03 1013.45 1013.35 1012.75 1012.29 1012.73 1012.95 1013.38 1013.13 1012.38 1011.04 1008.93 1008.08 1007.84 1007.09 1006.67 1006.45 1006.06 1005.74 1006.05 1007.19 1008.88 1010.47 1011.61
1021.23 1020.89 1020.53 1020.16 1019.78 1019.30 1018.83 1018.44 1018.12 1017.65 1017.14 1016.77 1016.36 1015.90 1015.75 1015.70 1013.88 1011.28 1011.99 1012.33 1012.16 1012.23 1012.75 1012.59 1012.42 1011.78 1011.35 1011.38 1011.93 1012.34 1011.74 1011.68 1010.19 1009.78 1009.24 1008.16 1007.06 1006.68 1006.32 1005.83 1006.37 1006.43 1008.31 1010.48 1011.29
1021.15 1020.84 1020.44 1020.01 1019.61 1019.08 1018.57 1018.08 1017.66 1017.16 1016.59 1016.12 1015.74 1015.67 1015.57 1014.50 1012.79 1012.41 1011.91 1011.92 1011.67 1011.41 1011.74 1011.84 1011.71 1011.15 1010.09 1009.86 1010.94 1011.03 1010.84 1011.35 1010.55 1010.18 1009.87 1009.16 1007.98 1007.07 1006.43 1006.24 1006.90 1007.10 1008.60 1009.95 1010.84
1021.14 1020.73 1020.30 1019.85 1019.37 1018.90 1018.29 1017.66 1017.18 1016.62 1015.91 1015.45 1015.09 1015.21 1015.02 1013.61 1012.49 1012.49 1011.96 1011.66 1011.26 1010.37 1010.88 1011.14 1010.71 1010.41 1009.83 1009.31 1009.64 1009.93 1010.22 1010.49 1010.41 1010.83 1009.95 1009.35 1008.11 1007.67 1006.58 1006.38 1006.77 1007.56 1008.37 1009.41 1010.19
1021.07 1020.66 1020.29 1019.72 1019.21 1018.68 1018.00 1017.26 1016.58 1015.98 1015.28 1014.73 1014.48 1014.62 1014.02 1012.53 1012.29 1012.04 1011.91 1011.48 1011.20 1009.86 1010.04 1010.51 1010.48 1009.90 1009.54 1009.08 1009.13 1009.34 1009.55 1009.81 1009.98 1010.30 1010.03 1009.77 1008.04 1007.09 1007.15 1006.96 1006.89 1007.45 1007.87 1008.63 1009.37
1021.01 1020.56 1020.19 1019.58 1019.05 1018.46 1017.67 1016.82 1015.90 1015.29 1014.59 1014.15 1013.97 1014.03 1012.96 1011.96 1012.12 1012.24 1011.90 1011.41 1011.07 1010.11 1009.97 1010.30 1010.48 1010.33 1009.18 1008.79 1008.86 1009.13 1009.21 1008.82 1009.10 1010.21 1009.99 1009.58 1007.26 1006.71 1006.74 1006.73 1006.71 1007.01 1007.22 1008.01 1008.66
1020.96 1020.49 1020.07 1019.50 1018.94 1018.30 1017.37 1016.36 1015.35 1014.73 1014.24 1013.41 1013.52 1013.63 1012.58 1012.23 1012.15 1012.00 1012.10 1011.48 1010.56 1009.84 1009.88 1010.20 1010.51 1009.99 1009.52 1008.78 1008.54 1008.19 1007.31 1007.69 1008.22 1009.16 1009.38 1009.44 1007.90 1006.83 1006.76 1006.49 1006.50 1006.43 1006.85 1007.37 1008.07
1020.82 1020.40 1019.95 1019.42 1018.90 1018.15 1017.25 1015.80 1014.74 1014.39 1013.95 1013.01 1013.30 1013.38 1012.59 1012.99 1012.59 1011.80 1010.83 1011.02 1009.92 1009.63 1010.30 1010.42 1010.23 1009.36 1008.88 1008.03 1006.14 1006.45 1007.14 1007.06 1007.57 1008.31 1008.75 1008.53 1007.93 1007.10 1007.03 1006.72 1006.38 1006.17 1006.40 1006.92 1007.53
1020.71 1020.29 1019.85 1019.30 1018.75 1018.15 1017.03 1015.35 1015.09 1014.30 1015.05 1014.84 1014.35 1013.73 1012.92 1012.65 1012.48 1011.09 1010.85 1010.47 1009.37 1009.45 1008.95 1009.56 1009.42 1007.80 1007.21 1007.00 1006.70 1006.49 1006.76 1006.95 1006.89 1007.85 1008.54 1008.16 1007.73 1007.14 1006.92 1006.91 1006.38 1006.01 1006.13 1006.49 1007.01
1020.73 1020.27 1019.85 1019.26 1018.83 1018.41 1017.58 1017.37 1018.33 1018.80 1016.46 1014.57 1013.98 1013.50 1012.95 1013.00 1012.55 1012.43 1011.86 1010.74 1009.33 1009.01 1008.59 1009.32 1008.11 1008.25 1008.17 1007.87 1007.26 1006.59 1006.66 1006.98 1008.15 1008.41 1008.93 1008.22 1007.61 1007.10 1006.63 1006.36 1006.25 1006.15 1006.21 1006.60 1006.87
1020.71 1020.25 1019.80 1019.15 1018.72 1018.46 1018.23 1018.70 1018.63 1018.30 1017.09 1014.13 1013.83 1013.59 1013.45 1013.22 1013.18 1013.37 1013.05 1011.93 1010.32 1009.39 1008.90 1008.47 1008.40 1008.45 1008.54 1008.10 1007.73 1007.28 1007.28 1007.85 1008.09 1009.34 1009.37 1008.53 1007.46 1007.10 1006.33 1006.31 1006.15 1006.16 1006.21 1006.32 1006.71
1020.70 1020.32 1019.83 1019.24 1018.95 1018.63 1018.30 1018.70 1018.56 1018.24 1017.03 1014.55 1013.46 1013.20 1012.88 1012.98 1013.61 1014.15 1013.85 1013.84 1012.36 1010.75 1009.92 1009.25 1009.06 1008.97 1009.04 1008.43 1008.37 1008.06 1008.20 1008.62 1008.65 1009.67 1009.11 1008.77 1006.77 1005.47 1005.41 1005.48 1005.78 1006.15 1006.49 1006.50 1006.48
1020.61 1020.35 1019.85 1019.56 1019.20 1018.55 1018.98 1018.63 1018.41 1018.15 1016.86 1015.13 1013.85 1013.56 1013.00 1013.65 1014.00 1014.62 1014.48 1014.52 1013.76 1012.38 1011.20 1010.58 1009.85 1009.81 1009.36 1008.90 1009.21 1008.96 1009.40 1009.76 1010.12 1010.04 1009.40 1009.07 1007.87 1005.02 1005.11 1004.97 1005.18 1005.58 1005.90 1006.43 1006.34
1020.34 1020.20 1019.80 1019.32 1019.20 1018.98 1018.97 1018.56 1018.26 1018.06 1017.39 1016.21 1014.94 1014.02 1013.40 1013.88 1013.98 1014.29 1014.56 1014.62 1014.77 1013.68 1012.36 1011.69 1011.09 1010.28 1009.82 1009.90 1010.00 1010.46 1010.66 1011.19 1011.44 1011.39 1010.70 1008.95 1007.58 1005.18 1004.57 1004.95 1005.16 1005.38 1005.62 1006.16 1006.76
1020.43 1020.38 1019.99 1019.76 1019.74 1019.34 1018.79 1018.21 1018.31 1018.85 1019.07 1017.96 1016.67 1015.38 1014.61 1014.13 1014.24 1014.16 1014.18 1014.55 1014.96 1014.44 1013.52 1012.61 1011.75 1011.43 1011.09 1010.93 1011.01 1010.89 1011.04 1011.67 1012.34 1012.43 1010.25 1009.35 1007.81 1005.95 1005.09 1005.38 1005.79 1006.00 1006.27 1006.60 1006.85
1020.71 1020.46 1020.52 1020.24 1019.91 1019.33 1018.51 1018.20 1019.01 1020.57 1020.11 1019.04 1018.01 1016.40 1015.30 1014.89 1014.38 1014.71 1014.69 1015.09 1015.42 1015.16 1014.19 1013.25 1013.00 1011.71 1011.26 1010.66 1010.83 1011.03 1011.02 1010.67 1011.37 1010.95 1009.64 1009.61 1007.46 1005.87 1005.55 1005.67 1006.11 1006.55 1006.93 1007.21 1007.45
1020.56 1020.17 1020.08 1020.09 1019.80 1019.36 1018.84 1019.55 1020.94 1021.28 1020.93 1020.05 1018.37 1017.24 1016.36 1015.99 1015.69 1014.93 1015.66 1015.88 1015.65 1015.44 1014.92 1014.04 1013.14 1012.10 1011.88 1011.45 1011.26 1011.47 1011.27 1011.39 1011.24 1011.18 1010.16 1008.54 1007.19 1006.49 1006.01 1006.15 1006.37 1006.80 1007.17 1007.59 1007.72
1020.38 1020.16 1020.14 1020.30 1019.97 1019.21 1019.43 1021.07 1022.05 1022.20 1021.62 1020.45 1019.68 1018.81 1017.89 1017.28 1016.63 1016.18 1016.36 1016.97 1016.45 1016.21 1015.53 1015.02 1014.26 1013.93 1013.41 1012.40 1011.66 1011.52 1011.38 1011.78 1011.43 1011.07 1009.97 1007.95 1007.06 1005.99 1006.01 1005.99 1006.47 1006.89 1007.22 1007.48 1007.90
1020.56 1020.26 1020.39 1020.28 1019.99 1019.74 1020.94 1022.12 1022.52 1022.47 1022.21 1021.61 1020.85 1020.14 1019.15 1018.43 1017.93 1017.36 1017.06 1016.96 1016.90 1016.41 1015.97 1015.32 1014.74 1015.17 1014.52 1013.53 1012.43 1012.47 1011.89 1011.62 1011.19 1010.69 1009.66 1008.44 1006.98 1006.09 1006.06 1006.57 1006.83 1007.29 1007.79 1008.09 1008.27
1020.89 1020.90 1020.64 1020.44 1020.58 1021.46 1022.11 1022.90 1023.16 1022.67 1022.34 1022.08 1021.60 1020.78 1020.11 1019.31 1018.57 1017.96 1017.81 1017.60 1017.38 1016.97 1016.71 1015.92 1015.37 1014.78 1014.46 1014.14 1013.85 1013.53 1012.80 1012.53 1012.21 1011.56 1010.51 1009.55 1008.00 1007.47 1007.34 1007.54 1007.66 1007.77 1008.24 1008.53 1008.75
1021.52 1021.38 1020.77 1020.63 1021.08 1021.87 1022.99 1023.32 1023.33 1022.88 1022.25 1022.03 1021.71 1021.27 1020.82 1020.16 1019.38 1018.77 1018.39 1017.95 1017.60 1017.43 1017.57 1017.24 1016.00 1015.05 1014.65 1014.53 1014.18 1013.74 1013.28 1012.96 1012.72 1012.92 1011.41 1010.37 1008.49 1008.29 1008.21 1008.05 1008.28 1008.49 1008.71 1008.88 1008.99
1021.94 1021.87 1021.55 1021.30 1021.95 1022.10 1022.60 1023.26 1023.08 1022.72 1022.23 1021.96 1021.80 1021.56 1020.96 1020.54 1020.27 1019.66 1018.87 1018.00 1017.61 1017.75 1017.90 1017.47 1016.46 1015.69 1014.72 1014.17 1013.77 1013.26 1012.74 1012.66 1012.72 1011.89 1010.94 1009.38 1008.74 1008.32 1008.29 1008.38 1008.50 1008.74 1009.04 1009.07 1009.09
1022.33 1022.25 1022.56 1022.38 1022.48 1022.58 1022.80 1023.06 1022.92 1022.53 1022.19 1021.82 1021.80 1021.67 1021.33 1020.86 1020.17 1019.70 1019.32 1018.63 1018.11 1017.99 1017.49 1017.72 1016.99 1016.37 1015.60 1014.62 1013.97 1013.27 1012.75 1012.21 1011.79 1010.86 1010.86 1008.59 1008.63 1008.09 1008.05 1008.47 1008.70 1009.02 1009.12 1009.19 1009.26
1022.07 1022.18 1022.73 1022.70 1022.83 1022.69 1022.72 1022.53 1022.42 1022.09 1021.83 1021.44 1021.36 1021.04 1021.01 1020.93 1020.63 1020.25 1019.84 1019.42 1019.08 1018.55 1018.23 1017.91 1017.60 1017.00 1015.91 1014.95 1014.37 1013.52 1012.45 1011.89 1011.15 1010.50 1010.03 1008.82 1008.17 1008.43 1008.34 1008.69 1008.83 1009.08 1009.18 1009.14 1009.04
1021.64 1021.54 1021.43 1022.38 1022.51 1022.62 1021.97 1021.88 1021.90 1021.65 1021.25 1020.91 1020.92 1020.92 1020.75 1020.53 1020.40 1020.12 1020.06 1019.95 1019.68 1019.48 1019.29 1018.87 1018.41 1017.69 1016.25 1015.65 1014.93 1013.72 1011.92 1011.03 1010.33 1010.01 1009.50 1008.81 1007.44 1008.37 1008.43 1008.78 1009.04 1008.95 1008.77 1008.85 1008.93
Wind_Speed
11 12 13 14 15 16 17 18 19 20 19 20 20 20 18 21 22 21 23 15 12 19 13 17 14 6 3 4 4 8 6 11 19 15 11 5 7 2 4 5 7 7 4 7 21
11 12 13 14 15 16 18 18 18 19 20 21 19 20 20 20 22 25 22 15 15 18 16 14 13 9 5 6 6 9 4 13 10 8 6 2 7 6 6 10 9 8 6 18 19
12 13 14 16 17 17 18 19 19 19 19 21 21 20 18 20 20 25 26 22 27 23 20 18 14 14 17 7 8 8 14 20 12 7 11 13 6 5 9 13 11 13 13 17 17
12 14 15 16 17 18 19 20 20 21 21 21 21 21 16 14 11 5 12 9 9 15 20 18 17 19 15 14 12 8 17 22 26 20 17 15 12 8 11 3 5 6 19 18 18
12 14 15 16 17 19 20 21 21 22 23 23 23 20 12 11 22 23 13 12 13 13 23 21 21 19 19 17 16 18 13 19 20 22 23 20 14 15 9 10 3 6 18 19 18
12 14 15 16 17 20 21 23 23 23 24 24 24 18 12 18 3 14 11 14 17 14 23 23 15 21 17 14 20 17 18 13 7 16 19 20 17 3 9 9 7 10 15 16 17
12 14 15 16 18 20 22 24 25 25 26 24 21 12 12 19 6 6 11 7 12 12 23 23 21 15 19 17 12 16 19 15 15 17 13 16 24 21 16 4 9 12 12 15 17
12 14 15 17 19 21 23 25 27 25 19 14 13 8 9 4 4 10 9 10 15 13 19 19 20 11 16 6 13 15 12 18 16 14 7 12 18 18 17 12 12 10 12 14 16
12 14 15 17 19 21 23 25 26 17 11 18 6 4 7 2 4 6 8 14 15 11 15 8 12 15 14 13 13 15 16 19 14 21 11 15 13 21 9 14 15 12 11 12 13
12 13 15 17 19 20 22 24 18 12 16 3 2 7 2 11 13 12 8 12 10 15 15 13 11 14 13 16 21 21 21 16 19 12 17 23 18 18 5 11 14 15 13 11 13
12 12 14 17 18 18 15 6 9 1 11 8 16 11 16 12 6 12 3 10 13 16 13 17 14 21 24 24 17 17 16 20 12 10 11 19 21 19 10 9 16 14 13 12 13
12 13 15 17 18 11 7 6 7 7 11 11 12 13 8 7 8 16 13 3 13 19 15 15 21 18 14 18 18 18 16 16 3 7 7 12 18 19 15 19 14 12 13 14 12
12 13 15 16 12 2 5 9 7 7 6 9 5 7 7 8 5 6 11 10 5 15 16 17 5 13 15 16 18 16 15 14 16 6 7 7 15 17 19 21 18 17 16 12 12
12 13 15 19 5 6 2 10 8 5 3 14 10 6 11 10 3 7 1 8 3 9 11 7 6 13 12 16 15 17 12 10 6 9 8 10 9 16 19 20 18 18 16 16 15
12 12 12 6 7 5 9 11 8 3 6 18 8 5 12 6 7 5 10 5 4 5 7 4 6 12 16 17 15 10 8 5 2 8 7 8 7 13 4 16 17 15 15 16 15
11 10 9 2 4 6 12 11 4 3 6 11 9 15 19 7 6 2 3 5 2 5 6 2 3 4 5 3 8 12 12 5 4 2 7 15 12 10 10 9 10 8 10 9 13
9 7 4 4 6 12 11 4 2 5 8 10 11 15 13 11 7 7 4 4 4 4 4 2 6 2 6 9 7 10 11 5 5 4 10 3 14 14 6 3 3 3 4 3 3
5 6 3 3 8 11 6 2 6 1 4 9 13 14 9 14 9 10 5 3 3 2 3 8 6 10 10 11 7 12 16 5 13 11 9 9 10 5 9 5 3 4 4 3 6
7 1 1 6 9 7 3 5 3 1 6 10 12 6 9 13 10 9 7 11 5 3 6 5 3 8 4 1 11 13 10 2 3 2 3 9 11 9 11 8 6 7 4 6 7
4 3 3 10 9 5 3 4 2 2 7 8 7 8 9 14 12 11 12 10 9 6 8 1 0 5 3 4 8 7 6 5 3 6 7 10 13 7 4 7 6 1 4 2 3
3 2 5 9 5 4 4 3 1 3 4 5 5 5 7 9 7 8 10 6 12 10 11 3 4 3 2 2 9 9 9 7 4 5 8 9 6 4 3 3 3 5 3 5 6
2 1 5 7 2 2 2 1 2 2 1 2 3 3 6 9 5 7 8 9 13 9 7 7 1 0 1 1 6 6 10 13 3 8 8 9 8 3 2 3 5 7 3 2 2
1 1 3 4 0 2 3 2 1 2 2 0 2 3 5 5 4 6 6 4 13 9 6 7 1 2 5 4 5 5 6 9 12 1 7 5 5 4 2 2 4 6 5 3 1
2 1 3 3 1 1 3 2 2 3 3 1 2 3 6 3 1 4 9 6 10 8 6 6 3 4 4 3 3 4 9 15 15 6 6 17 12 4 1 2 1 1 2 3 2
2 2 2 2 2 3 0 2 1 3 3 2 2 4 2 3 7 2 5 10 7 5 9 4 3 6 9 9 8 7 9 9 17 19 12 16 14 13 13 5 1 3 2 2 2
4 3 1 3 4 3 2 5 6 3 4 2 4 2 2 2 3 7 8 5 4 7 9 4 4 4 4 6 7 10 10 13 16 18 19 21 23 15 9 9 8 8 5 6 4
1 1 2 6 5 4 4 5 8 6 5 3 4 3 7 8 8 8 7 10 13 13 7 4 3 4 3 3 6 7 13 17 16 15 18 19 24 13 14 9 9 8 8 6 5
Wind_Direction
350 350 349 349 348 344 341 339 336 329 325 318 312 308 308 305 302 280 266 270 283 260 281 278 283 263 129 167 104 312 260 232 233 218 248 86 231 160 25 151 189 167 28 78 134
333 333 333 334 333 332 331 329 329 328 324 321 311 308 302 310 297 278 274 246 246 249 260 274 245 194 197 193 162 179 282 250 251 285 246 101 273 152 198 193 185 164 111 119 144
330 327 326 325 324 322 320 318 320 320 319 317 314 307 302 309 298 274 251 232 237 230 230 247 262 222 208 170 169 173 215 265 290 323 338 312 274 250 230 201 204 197 158 144 159
332 331 331 326 322 318 315 313 313 313 312 310 308 309 304 294 264 70 20 338 318 226 222 224 235 231 215 187 181 193 204 222 262 277 304 297 311 260 248 211 19 218 158 160 169
331 329 330 327 324 320 314 311 311 308 304 303 302 304 306 267 253 281 307 303 302 225 220 216 217 221 217 204 184 213 199 217 228 253 264 283 274 268 263 255 95 149 153 172 175
330 331 332 328 324 322 317 312 310 307 302 300 296 300 285 268 278 279 305 275 287 259 208 210 216 220 219 228 207 202 217 210 225 262 258 266 261 228 247 248 204 171 175 177 183
328 332 332 330 327 324 319 315 310 308 306 298 294 283 257 265 220 267 298 287 295 267 204 208 219 212 228 220 220 246 206 211 204 220 246 262 258 241 251 188 209 199 188 183 189
325 332 327 329 328 323 319 315 310 313 313 302 304 274 265 324 331 281 330 278 271 263 204 202 216 257 234 219 183 201 221 208 211 209 235 199 255 229 225 217 226 207 200 193 192
324 332 327 330 327 325 322 315 309 314 317 295 282 254 269 99 319 308 281 259 237 212 195 189 205 218 200 207 194 200 224 221 203 188 200 208 251 254 269 215 235 214 214 197 194
331 328 329 332 330 331 328 313 300 296 340 136 178 297 182 320 329 289 255 216 211 161 167 198 197 200 205 205 203 199 216 223 218 185 207 222 238 250 208 220 228 232 211 205 202
346 340 335 334 334 339 338 344 4 323 8 356 307 293 283 317 304 309 9 233 181 172 169 186 191 200 197 212 225 214 218 228 228 152 204 226 236 236 229 233 236 228 221 209 207
338 335 336 334 332 343 349 44 21 304 306 302 11 328 310 312 352 358 343 283 178 173 161 165 210 203 217 222 230 234 241 226 90 108 208 233 236 247 231 235 231 223 219 213 216
334 334 334 334 328 309 26 42 330 313 284 315 26 327 335 326 44 343 351 334 199 176 175 186 171 201 212 216 219 221 224 223 232 155 221 266 253 250 246 247 248 245 247 221 210
329 333 335 330 277 343 345 347 325 321 293 7 6 43 331 338 63 12 285 2 337 198 188 217 98 186 201 209 206 206 217 268 223 189 220 191 259 223 228 231 230 231 229 237 233
323 324 331 357 318 328 337 323 313 243 342 334 350 320 347 19 315 69 35 54 25 299 178 95 175 196 198 200 203 220 161 157 262 255 303 190 242 251 263 229 230 232 226 226 231
316 319 323 246 272 355 323 315 241 265 357 339 330 337 345 31 358 122 95 97 242 3 289 348 318 193 164 170 196 128 114 96 67 4 257 241 224 242 211 221 234 211 226 223 224
17 38 355 333 331 326 314 269 334 38 350 337 329 331 330 9 21 341 38 51 52 342 156 6 128 106 148 117 179 183 167 166 181 226 236 330 243 242 271 12 283 174 187 221 239
348 336 30 19 325 322 303 354 54 70 308 312 323 320 23 16 359 14 339 106 68 349 280 179 193 189 182 217 178 197 192 196 211 217 238 212 244 229 267 304 283 244 248 262 222
303 293 337 348 337 319 345 53 38 31 313 327 326 5 358 12 346 4 26 358 55 314 14 334 100 181 220 198 182 191 223 305 81 27 223 206 250 273 251 237 233 249 230 252 251
325 308 21 334 330 299 61 90 110 289 315 321 359 2 360 353 15 4 14 20 357 346 313 51 145 8 346 243 223 235 162 187 221 193 222 238 238 266 215 239 160 306 278 302 304
285 331 3 337 291 38 65 76 290 225 294 331 350 325 339 2 349 350 18 76 18 343 320 291 285 44 178 229 193 204 226 230 284 263 248 258 246 25 314 39 353 349 318 323 318
340 354 5 326 32 22 89 105 307 340 262 296 279 328 331 331 339 2 8 11 359 5 341 11 344 153 106 246 290 325 230 230 225 234 252 273 272 53 76 22 355 339 342 311 321
82 308 23 311 126 111 125 156 241 241 268 48 295 358 325 320 333 13 342 334 12 15 13 351 249 177 156 172 182 216 207 215 226 80 230 216 247 30 79 353 354 332 355 2 358
128 170 35 34 51 87 143 115 175 236 270 271 315 281 319 333 288 317 336 348 353 11 327 332 293 311 327 34 352 199 215 203 206 222 218 227 243 197 136 297 358 328 318 343 319
34 122 4 140 165 105 114 134 186 227 240 247 207 226 351 325 331 10 356 336 341 13 357 23 313 2 329 300 289 270 259 238 222 238 249 259 261 258 274 207 216 359 15 322 274
150 159 195 117 130 167 211 190 207 211 204 219 240 216 280 267 322 305 321 335 311 342 340 17 315 324 270 276 315 287 271 247 250 255 254 265 268 263 280 302 262 280 285 283 282
211 126 246 160 180 191 217 191 211 198 218 252 225 260 287 298 317 293 282 276 274 292 311 295 316 312 273 14 323 280 240 229 239 241 244 255 261 268 271 257 281 270 260 260 234